Location: Abraham Lincoln Continuation High School
(33.9711°N, 117.3662°W)
Time: 06:19:17
(UTC+00:00)

Lacrosse 5 - Pass Details

Date: 23 January 2021
Orbit: 715 x 724 km, 57.0° (Epoch: 01 March)

Event Time Altitude Azimuth Distance (km) Brightness Sun altitude
Rises 03:32:15 0° 313° (NW) 3,117 5.7 -29.2°
Reaches altitude 10° 03:34:44 10° 306° (NW) 2,195 4.9 -29.7°
Maximum altitude 03:39:26 40° 237° (WSW) 1,044 3.0 -30.7°
Enters shadow 03:39:57 39° 222° (SW) 1,064 2.9 -30.8°
